{"data":{"norad_id":62837,"intl_designator":"2025-019J","name":"STARLINK-11557 [DTC]","alt_names":[],"object_type":"PAYLOAD","status":"ACTIVE","operator":null,"country":"US","launch_date":"2025-01-27","launch_site_code":"AFETR","launch_vehicle":null,"mission":null,"orbit_class":"UNKNOWN","rcs_meters":null,"size_class":null,"mass_kg":null,"dimensions":null,"purposes":["comms"],"wikipedia_slug":null,"has_3d_model":false,"image_url":null,"decayed_at":null,"tle_current":{"epoch":"2026-09-21T05:11:26.979936Z","epoch_age_seconds":106330,"freshness":"FRESH","line1":"1 62837U 25019J   26264.21628449  .00138725  00000+0  10651-2 0  9999","line2":"2 62837  43.0029 207.2632 0001717 287.7552  72.3128 15.70875005 94633","mean_motion":15.70875005,"eccentricity":0.0001717,"inclination_deg":43.0029,"raan_deg":207.2632,"arg_perigee_deg":287.7552,"mean_anomaly_deg":72.3128,"bstar":0.0010651,"rev_number":9463,"period_min":91.668655712044,"perigee_km":355.23869343863,"apogee_km":357.55133173176,"semimajor_km":6734.5320125852,"source":"CELESTRAK","updated_at":"2026-09-22T09:00:49.672633Z"}}}